{"data":{"norad_id":62702,"epoch":"2026-09-22T16:26:00.380832Z","epoch_age_seconds":131030,"freshness":"FRESH","line1":"1 62702U 25009CX  26265.68472663  .00001217  00000+0  11558-3 0  9999","line2":"2 62702  97.6978 342.6673 0002999  82.8917 277.2645 14.95325796 91936","mean_motion":14.95325796,"eccentricity":0.0002999,"inclination_deg":97.6978,"raan_deg":342.6673,"arg_perigee_deg":82.8917,"mean_anomaly_deg":277.2645,"bstar":0.00011558,"rev_number":9193,"period_min":96.300084159051,"perigee_km":579.27454078959,"apogee_km":583.44884810652,"semimajor_km":6959.4986944481,"source":"CELESTRAK","updated_at":"2026-09-23T09:00:21.585990Z"}}